Orbital Elements at Epoch 2459200.5 (2020-Dec-17.0) TDB
Reference: JPL 18 (heliocentric ecliptic J2000)
Element | Value | Uncertainty (1-sigma) | Units |
e | .1765230235631112 | 6.8516e-08 | |
a | 2.641232244858847 | 2.5409e-08 | au |
q | 2.17499394306398 | 1.7921e-07 | au |
i | 14.6827508439288 | 6.9791e-06 | deg |
node | 132.0336086130763 | 2.5096e-05 | deg |
peri | 198.8480081128132 | 2.9987e-05 | deg |
M | 259.982004180358 | 2.2026e-05 | deg |
tp | 2459636.096077021441 (2022-Feb-25.59607702) | 9.993e-05 | TDB |
period | 1567.86372734858 4.29 | 2.2625e-05 6.194e-08 | d yr |
n | .2296117919691894 | 3.3133e-09 | deg/d |
Q | 3.107470546653715 | 2.9894e-08 | au |
|
| | Orbit Determination Parameters
Additional Information
|